Weather in Obluchie

Russia / Jewish Autonomous Oblast     49°01′08″N   131°03′14″E
temp.,
°C
wind,
m/s
gust,
m/s
humid.,
%
clouds,
%
prec.,
mm/h
press.,
hPa
HPBL,
m
14 may, fri
fri1401:00+5sse00953 0.0 100910
04:00+5e11965 0.0 100910
07:00+7ese11928 0.0 101042
10:00+14sse126595 0.0 1009501
13:00+20sw3631100 0.0 10081994
16:00+21ssw2730100 0.0 10053483
19:00+18s51238100 0.0 1004995
22:00+16se71537100 0.0 1002910
15 may, sat
sat1501:00+15s61648100 0.1 10001233
04:00+11ese41194100 3.8 996556
07:00+10w2799100 3.9 997668
10:00+9wnw5994100 4.8 1000753
13:00+13wnw696198 0.5 10001728
16:00+13wnw6136535 2.1 10002050
19:00+11wnw614655 1.1 10011791
22:00+9w513675 1.1 1002989
16 may, sun
sun1601:00+9w5137169 0.1 10021157
04:00+7w5137819 0.1 1003839
07:00+8wnw412735 0.0 1003777
10:00+13wnw613521 0.0 10031391
13:00+17wnw612362 0.0 10022110
16:00+19wnw512263 0.0 10002957
19:00+18nnw133995 0.0 999227
22:00+9nw1392100 1.6 1002132
17 may, mon
mon1701:00+8ssw119160 2.4 100110
04:00+6w119721 2.4 100223
07:00+7w119632 0.0 100489
10:00+14wsw13674 0.0 1003463
13:00+20sw49335 0.0 10022408
16:00+22w693036 0.0 10003049
19:00+19nw37435 0.0 1000874
22:00+12e11655 0.0 100211
18 may, tue
tue1801:00+10ese22709 0.0 100223
04:00+9ese337453 0.0 100048
07:00+11ese2369100 0.0 100092
10:00+21ssw4103474 0.0 9981133
13:00+26sw71423100 0.0 9962866
16:00+27wsw61324100 0.0 9943987
19:00+21nw484598 0.0 995662
22:00+15nnw51060100 0.1 1000910